This demonstration page uses our WeatherBlox Daily Observations layout. Learn more.

Left ArrowRight Arrow

41.55636, -103.73856

Hourly Observations for February 20, 2018

Temp ( °F °C ) Dew Point ( °F °C ) Humidity (%) Winds ( mph kmh ) Pressure ( in mb ) Visibility ( mi km ) Precip ( " mm )
12:53 am 00:53 Mostly Cloudy 1 -17.2 -7 -21.7 68 68 WNW 6 9 30.15 1021 10 16 N/A
1:53 am 01:53 Cloudy with Light Snow 1 -17.2 -6 -21.1 72 72 NW 8 13 30.16 1021 9 14 N/A
2:53 am 02:53 Clear N/A -6 -21.1 76 76 WNW 8 13 30.19 1022 10 16 N/A
3:53 am 03:53 Clear -5 -20.6 -9 -22.8 83 83 NW 5 7 30.20 1023 10 16 N/A
4:53 am 04:53 Clear -6 -21.1 -10 -23.3 83 83 WNW 9 15 30.22 1023 10 16 N/A
5:53 am 05:53 Clear -8 -22.2 -12 -24.4 82 82 W 10 17 30.25 1024 10 16 N/A
6:53 am 06:53 Sunny -10 -23.3 -15 -26.1 78 78 WNW 7 11 30.29 1026 10 16 N/A
7:53 am 07:53 Sunny -8 -22.2 -14 -25.6 74 74 NW 5 7 30.32 1027 10 16 N/A
8:53 am 08:53 Sunny -4 -20 -11 -23.9 71 71 NW 6 9 30.31 1027 10 16 N/A
9:53 am 09:53 Sunny 1 -17.2 -8 -22.2 65 65 W 7 11 30.32 1027 10 16 N/A
10:53 am 10:53 Sunny 5 -15 -6 -21.1 60 60 WNW 5 7 30.32 1027 10 16 N/A
11:53 am 11:53 Sunny 9 -12.8 -3 -19.4 58 58 WSW 6 9 30.31 1026 10 16 N/A
12:53 pm 12:53 Sunny 10 -12.2 -3 -19.4 55 55 WSW 6 9 30.30 1026 10 16 N/A
1:53 pm 13:53 Sunny 12 -11.1 -1 -18.3 56 56 NW 10 17 30.29 1026 10 16 N/A
2:53 pm 14:53 Sunny 13 -10.6 -1 -18.3 54 54 WNW 8 13 30.31 1027 10 16 N/A
3:53 pm 15:53 Sunny 13 -10.6 -1 -18.3 54 54 NW 6 9 30.35 1028 10 16 N/A
4:53 pm 16:53 Sunny 11 -11.7 -1 -18.3 58 58 NW 5 7 30.37 1028 10 16 N/A
5:53 pm 17:53 Clear 6 -14.4 -3 -19.4 66 66 N N/A 30.42 1030 10 16 N/A
6:53 pm 18:53 Clear 6 -14.4 -3 -19.4 66 66 S 3 6 30.45 1031 10 16 N/A
7:53 pm 19:53 Clear -5 -20.6 -10 -23.3 79 79 E 5 7 30.50 1033 10 16 N/A
8:53 pm 20:53 Clear -6 -21.1 -11 -23.9 78 78 NNE 6 9 30.52 1033 10 16 N/A
9:53 pm 21:53 Clear -5 -20.6 -10 -23.3 79 79 E 7 11 30.53 1034 10 16 N/A
10:53 pm 22:53 Clear -6 -21.1 -11 -23.9 78 78 N N/A 30.52 1034 10 16 N/A
11:53 pm 23:53 Clear -6 -21.1 -11 -23.9 78 78 N N/A 30.53 1034 10 16 N/A

Powered by AerisWeather